Location: Zapote
(9.9191°N, 84.0597°W)
Time: 13:10:46
(UTC-06:00)

Transit 2A Rocket - All Passes

Search period start: 28 February 2021 00:00
Search period end: 10 March 2021 00:00
Orbit: 594 x 909 km, 66.7° (Epoch: 28 February)

Date Brightness Start Highest point End Pass type
(mag) Time Alt. Az. Time Alt. Az. Time Alt. Az.
28 Feb - 02:00:01 10° SSW 02:05:42 85° WNW 02:10:52 10° NNE night (unlit)
28 Feb - 12:42:45 10° N 12:46:43 31° ENE 12:50:54 10° SE daylight
28 Feb - 14:27:05 10° W 14:29:00 12° WSW 14:31:00 10° SW daylight
01 Mar - 01:17:43 10° S 01:23:09 46° ESE 01:28:06 10° NE night (unlit)
01 Mar - 03:03:30 10° W 03:05:28 12° WNW 03:07:24 10° NW night (unlit)
01 Mar - 12:01:48 10° NE 12:04:09 14° ENE 12:06:35 10° E daylight
01 Mar - 13:42:34 10° NW 13:46:26 28° WSW 13:50:33 10° SSW daylight
02 Mar - 00:36:14 10° SSE 00:40:33 23° ESE 00:44:37 10° ENE night (unlit)
02 Mar - 02:18:24 10° WSW 02:22:54 25° WNW 02:27:06 10° NNW night (unlit)
02 Mar - 12:59:26 10° NNW 13:03:52 65° WSW 13:08:42 10° SSE daylight
02 Mar - 23:57:03 10° ESE 23:57:57 10° ESE 23:58:52 10° E night (unlit)
03 Mar - 01:34:56 10° SW 01:40:22 52° WNW 01:45:21 10° N night (unlit)
03 Mar - 12:16:58 10° N 12:21:21 54° ENE 12:26:04 10° SSE daylight
04 Mar - 00:52:13 10° SSW 00:57:50 75° ESE 01:02:57 10° NNE night (unlit)
04 Mar - 11:35:13 10° NNE 11:38:50 24° ENE 11:42:38 10° ESE daylight
04 Mar - 13:18:09 10° WNW 13:21:07 17° WSW 13:24:13 10° SSW daylight
05 Mar - 00:10:10 10° S 00:15:16 35° ESE 00:19:58 10° NE night (unlit)
05 Mar - 01:54:25 10° WSW 01:57:35 16° WNW 02:00:36 10° NNW night (unlit)
05 Mar - 10:55:33 10° ENE 10:56:15 10° ENE 10:56:58 10° ENE daylight
05 Mar - 12:34:21 10° NW 12:38:32 37° WSW 12:43:04 10° S daylight
05 Mar - 23:29:06 10° SSE 23:32:40 17° ESE 23:36:04 10° ENE night (unlit)
06 Mar - 01:10:09 10° SW 01:15:02 32° WNW 01:19:33 10° N night (unlit)
06 Mar - 11:51:28 10° NNW 11:55:59 87° WSW 12:00:53 10° SSE daylight
07 Mar - 00:26:57 10° SSW 00:32:30 68° WNW 00:37:33 10° NNE night (unlit)
07 Mar - 11:09:14 10° N 11:13:28 40° ENE 11:18:01 10° SE daylight
07 Mar - 23:44:28 10° S 23:49:57 57° ESE 23:54:58 10° NNE night (unlit)
08 Mar - 10:27:50 10° NNE 10:30:56 18° ENE 10:34:10 10° ESE daylight
08 Mar - 12:09:37 10° WNW 12:13:12 23° WSW 12:17:02 10° SSW daylight
08 Mar - 23:02:43 10° SSE 23:07:23 27° ESE 23:11:43 10° NE night (unlit)
09 Mar - 00:45:48 10° WSW 00:49:42 20° WNW 00:53:23 10° NNW night (unlit)
09 Mar - 11:26:14 10° NW 11:30:38 50° WSW 11:35:26 10° S daylight
09 Mar - 22:22:19 10° SE 22:24:46 13° ESE 22:27:10 10° E night (unlit)
